CW4352 Weather Reports


time (UTC)temp
C
wind
direction
speed
KPH
gust
KPH
rain 1hr
cm
rain 24hr
cm
rain mn
cm
humidity
%
barometer
mb
20260904053705 22 263 0.0 3.2 0.00 0.00 0.00 60 1014.2
20260904051705 22 263 4.8 8.0 0.00 0.00 0.00 59 1014.2
20260904051205 22 263 4.8 8.0 0.00 0.00 0.00 59 1014.2
20260904050205 22 263 6.4 9.7 0.00 0.00 0.00 58 1014.2
20260904044705 22 263 4.8 9.7 0.00 0.00 0.00 58 1014.2
20260904043205 22 263 4.8 8.0 0.00 0.00 0.00 59 1013.9
20260904041705 22 263 1.6 4.8 0.00 0.00 0.00 60 1013.9
20260904040705 22 263 1.6 1.6 0.00 0.00 0.00 58 1013.9
20260904040205 22 263 0.0 8.0 0.00 0.00 0.00 58 1013.9
20260904033705 22 263 4.8 9.7 0.00 0.00 0.00 59 1013.7
20260904031705 22 263 3.2 4.8 0.00 0.00 0.00 58 1013.7
20260904031205 23 263 1.6 3.2 0.00 0.00 0.00 58 1013.7
20260904030205 23 263 3.2 8.0 0.00 0.00 0.00 57 1013.7
20260904024705 23 263 8.0 11.3 0.00 0.00 0.00 57 1013.8
20260904023205 23 263 3.2 11.3 0.00 0.00 0.00 57 1013.8
20260904021705 23 263 3.2 4.8 0.00 0.00 0.00 58 1013.8
20260904021205 23 263 3.2 8.0 0.00 0.00 0.00 58 1013.8
20260904020205 23 263 3.2 4.8 0.00 0.00 0.00 58 1013.8
20260904014705 23 263 3.2 4.8 0.00 0.00 0.00 58 1013.8
20260904014204 23 263 3.2 4.8 0.00 0.00 0.00 58 1013.8
20260904013205 23 263 4.8 8.0 0.00 0.00 0.00 57 1013.8
20260904004705 23 263 3.2 8.0 0.00 0.00 0.00 57 1013.8
20260904001705 23 265 1.6 4.8 0.00 0.00 0.00 57 1014.1
20260903234205 24 266 8.0 11.3 0.00 0.00 0.00 54 1014.2
20260903233705 24 266 8.0 11.3 0.00 0.00 0.00 55 1014.2
20260903233205 24 266 4.8 9.7 0.00 0.00 0.00 54 1014.2
20260903231704 25 266 1.6 4.8 0.00 0.00 0.00 54 1014.2
20260903230706 25 266 3.2 4.8 0.00 0.00 0.00 54 1013.2
20260903224204 25 284 4.8 9.7 0.00 0.00 0.00 54 1014.1
20260903223203 25 284 3.2 8.0 0.00 0.00 0.00 53 1013.8
20260903221704 25 284 0.0 3.2 0.00 0.00 0.00 53 1013.8
20260903221204 25 284 0.0 4.8 0.00 0.00 0.00 52 1013.8
20260903220704 25 284 3.2 8.0 0.00 0.00 0.00 52 1013.8
20260903213704 25 298 4.8 9.7 0.00 0.00 0.00 52 1013.8
20260903213204 25 299 1.6 11.3 0.00 0.00 0.00 51 1013.7
20260903211203 26 299 4.8 9.7 0.00 0.00 0.00 50 1013.7
20260903204203 26 313 4.8 9.7 0.00 0.00 0.00 50 1013.7
20260903203204 26 0 3.2 8.0 0.00 0.00 0.00 50 1013.7
20260903201704 26 5 4.8 4.8 0.00 0.00 0.00 50 1013.7
20260903201204 26 5 1.6 4.8 0.00 0.00 0.00 51 1013.7
20260903200703 26 5 3.2 4.8 0.00 0.00 0.00 50 1013.4
20260903200204 26 5 1.6 4.8 0.00 0.00 0.00 50 1013.4
20260903194704 26 5 1.6 3.2 0.00 0.00 0.00 49 1013.4
20260903194203 26 5 1.6 3.2 0.00 0.00 0.00 48 1013.4
20260903190704 27 5 1.6 3.2 0.00 0.00 0.00 45 1013.2
20260903190204 27 5 1.6 3.2 0.00 0.00 0.00 45 1013.2
20260903180206 30 5 0.0 1.6 0.00 0.00 0.00 39 1012.7
20260903174207 30 5 3.2 4.8 0.00 0.00 0.00 36 1012.7
20260903173707 31 5 1.6 4.8 0.00 0.00 0.00 36 1012.7
20260903171707 31 5 3.2 4.8 0.00 0.00 0.00 34 1012.3
20260903171207 31 5 1.6 4.8 0.00 0.00 0.00 34 1012.3
20260903170707 32 5 3.2 4.8 0.00 0.00 0.00 33 1012.3
20260903163707 32 13 0.0 3.2 0.00 0.00 0.00 32 1012.3
20260903163206 32 13 0.0 1.6 0.00 0.00 0.00 32 1012.1
20260903161707 32 13 3.2 4.8 0.00 0.00 0.00 32 1012.1
20260903161207 32 13 1.6 4.8 0.00 0.00 0.00 32 1012.1
20260903160707 32 9 3.2 4.8 0.00 0.00 0.00 32 1012.1
20260903154706 32 5 0.0 4.8 0.00 0.00 0.00 31 1012.7
20260903153207 32 9 1.6 4.8 0.00 0.00 0.00 32 1012.7
20260903151206 32 333 3.2 4.8 0.00 0.00 0.00 31 1012.7
20260903150707 32 333 1.6 4.8 0.00 0.00 0.00 31 1012.7
20260903144707 32 335 3.2 8.0 0.00 0.00 0.00 31 1013.0
20260903144206 32 335 3.2 8.0 0.00 0.00 0.00 30 1013.0
20260903143707 32 324 3.2 11.3 0.00 0.00 0.00 31 1013.0
20260903140707 32 0 1.6 8.0 0.00 0.00 0.00 32 1013.0
20260903140206 32 9 1.6 9.7 0.00 0.00 0.00 33 1013.0
20260903134707 33 34 0.0 3.2 0.00 0.00 0.00 32 1013.0
20260903134206 32 47 1.6 4.8 0.00 0.00 0.00 31 1013.1
20260903133707 32 10 0.0 4.8 0.00 0.00 0.00 33 1013.2
20260903131709 32 49 3.2 4.8 0.00 0.00 0.00 34 1013.2
20260903123207 32 55 1.6 14.5 0.00 0.00 0.00 34 1013.5
20260903121206 32 22 3.2 4.8 0.00 0.00 0.00 34 1013.5
20260903120207 32 40 1.6 8.0 0.00 0.00 0.00 36 1013.5
20260903113706 31 65 1.6 12.9 0.00 0.00 0.00 35 1013.7
20260903111706 31 48 3.2 8.0 0.00 0.00 0.00 37 1014.3
20260903111206 31 45 3.2 8.0 0.00 0.00 0.00 37 1014.3
20260903110207 31 31 3.2 8.0 0.00 0.00 0.00 38 1014.3
20260903104706 31 30 1.6 4.8 0.00 0.00 0.00 38 1014.3
20260903103207 31 26 1.6 8.0 0.00 0.00 0.00 39 1014.3
20260903101707 30 19 3.2 8.0 0.00 0.00 0.00 42 1014.8
20260903100207 30 15 3.2 8.0 0.00 0.00 0.00 43 1014.8
20260903094706 29 22 3.2 4.8 0.00 0.00 0.00 43 1015.0
20260903094207 29 33 3.2 4.8 0.00 0.00 0.00 45 1015.0
20260903093707 29 355 3.2 4.8 0.00 0.00 0.00 45 1015.0
20260903093206 29 11 1.6 8.0 0.00 0.00 0.00 45 1015.0
20260903091707 29 42 3.2 4.8 0.00 0.00 0.00 45 1015.0
20260903091207 29 25 3.2 4.8 0.00 0.00 0.00 45 1014.9
20260903090206 28 35 1.6 4.8 0.00 0.00 0.00 45 1014.7
20260903084707 28 53 1.6 4.8 0.00 0.00 0.00 45 1014.7
20260903084206 28 65 3.2 8.0 0.00 0.00 0.00 46 1014.7
20260903083206 28 89 3.2 8.0 0.00 0.00 0.00 46 1014.7
20260903081206 27 89 1.6 8.0 0.00 0.00 0.00 47 1014.7
20260903080707 27 89 3.2 8.0 0.00 0.00 0.00 48 1014.7
20260903080206 27 89 3.2 8.0 0.00 0.00 0.00 49 1014.7
20260903073207 26 89 3.2 8.0 0.00 0.00 0.00 53 1014.6
20260903071206 25 89 0.0 8.0 0.00 0.00 0.00 56 1014.4
20260903070706 25 89 3.2 8.0 0.00 0.00 0.00 56 1014.4
20260903064706 23 89 0.0 1.6 0.00 0.00 0.00 61 1014.3
20260903063706 23 89 0.0 3.2 0.00 0.00 0.00 62 1014.3
20260903063207 22 89 1.6 4.8 0.00 0.00 0.00 64 1014.3